Location: Starhoo Observatory
(41.8578°N, 70.9669°W)
Time: 11:32:48
(UTC-04:00)

ISS - Visible Passes

Search period start: 31 July 2014 00:00
Search period end: 10 August 2014 00:00
Orbit: 411 x 419 km, 51.6° (Epoch: 31 July)

Date Brightness Start Highest point End Pass type
(mag) Time Alt. Az. Time Alt. Az. Time Alt. Az.
31 Jul -0.2 02:09:55 12° NNW 02:11:33 15° N 02:13:39 10° NE visible
31 Jul -0.8 03:46:18 10° NW 03:49:08 25° NNE 03:51:59 10° ENE visible
01 Aug -0.2 01:22:53 16° N 01:22:53 16° N 01:24:38 10° NE visible
01 Aug -0.5 02:57:33 10° NW 03:00:07 20° NNE 03:02:40 10° ENE visible
01 Aug -3.0 04:33:54 10° NW 04:37:16 73° NNE 04:40:38 10° ESE visible
02 Aug -0.3 02:09:02 11° NNW 02:11:02 17° N 02:13:20 10° NE visible
02 Aug -2.1 03:45:08 10° NW 03:48:23 45° NNE 03:51:38 10° ESE visible
02 Aug -1.2 20:29:57 10° SSE 20:30:58 11° SE 20:32:00 10° ESE visible
02 Aug -3.4 22:03:52 10° SW 22:07:12 87° NW 22:07:59 50° NE visible
03 Aug 0.0 01:23:17 13° NNE 01:23:17 13° NNE 01:24:04 10° NE visible
03 Aug -1.4 02:56:23 10° NW 02:59:25 31° NNE 03:02:28 10° E visible
03 Aug -2.9 04:33:01 10° WNW 04:36:12 40° SW 04:39:22 10° SSE visible
03 Aug -3.2 21:15:08 10° SW 21:18:23 53° SE 21:21:39 10° ENE visible
03 Aug -1.1 22:52:22 10° W 22:55:16 27° NNW 22:57:00 17° NNE visible
04 Aug -0.2 02:12:53 12° ENE 02:12:53 12° ENE 02:13:11 10° ENE visible
04 Aug -3.4 03:46:03 33° WNW 03:47:24 73° SW 03:50:45 10° SE visible
04 Aug -2.4 20:26:40 10° SSW 20:29:37 30° SE 20:32:35 10° ENE visible
04 Aug -1.7 22:03:08 10° W 22:06:16 37° NNW 22:09:25 10° NE visible
04 Aug -0.2 23:41:29 10° NW 23:43:41 16° N 23:43:47 16° N visible
05 Aug -2.6 21:14:02 10° WSW 21:17:19 57° NNW 21:20:37 10° NE visible
05 Aug -0.4 22:52:09 10° WNW 22:54:34 18° NNW 22:56:54 10° NNE visible
06 Aug -3.3 20:25:06 10° SW 20:28:25 84° SE 20:31:46 10° NE visible
06 Aug -0.7 22:02:48 10° WNW 22:05:28 22° NNW 22:08:10 10° NE visible
06 Aug -0.1 23:40:59 10° NW 23:42:38 15° N 23:42:38 15° N visible
07 Aug -1.1 21:13:28 10° W 21:16:25 28° NNW 21:19:22 10° NE visible
07 Aug -0.3 22:51:51 10° NW 22:53:56 15° N 22:55:24 12° NNE visible
08 Aug -1.8 20:24:14 10° W 20:27:23 40° NNW 20:30:35 10° NE visible
08 Aug -0.3 22:02:33 10° NW 22:04:46 16° N 22:07:00 10° NNE visible
08 Aug 0.0 23:40:00 10° NW 23:40:58 14° NNW 23:40:58 14° NNW visible
09 Aug -0.5 21:13:11 10° WNW 21:15:38 19° NNW 21:18:05 10° NE visible
09 Aug -0.5 22:51:05 10° NW 22:53:17 16° N 22:53:39 16° NNE visible
